Regional Weather Roundup
Issued by NWS Grand Forks, ND

Home | Current Version | Previous Version | Graphics & Text | Print | Product List | Glossary On
Versions: 1 2 3 4 5 6 7 8 9 10 11 12 13 14 15 16 17 18 19 20 21 22 23 24 25 26 27 28 29 30 31 32 33 34 35 36 37 38 39 40 41 42 43 44 45 46 47 48 49 50
000
ASUS43 KFGF 081931
RWRFGF
PRAIRIE TO PINES  WEATHER ROUNDUP
NATIONAL WEATHER SERVICE EASTERN NORTH DAKOTA/GRAND FORKS ND
100 PM CST MON FEB 08 2016

 **SATELLITE DATA USED TO AUGMENT SKY COVER AT AUTOMATED STATIONS**
 *****  WEATHER ACROSS EASTERN NORTH DAKOTA  *****

CITY           SKY/WX    TMP DP  RH WIND       PRES   REMARKS
GRAND FORKS    SNOW      14   7  73 N33G41    30.21R VSB 1/2 WCI  -8
GRAND FRKS AFB LGT SNOW  14   9  79 N25G32    30.21S WCI  -5
GRAND FRKS NWS   N/A     14 N/A N/A N28         N/A  WCI  -6
DEVILS LAKE    FLURRIES  18  11  74 N21       30.21F WCI   1
FARGO          LGT SNOW  15   9  76 N20       30.18S VSB 1   WCI  -2
WAHPETON ARPT  CLOUDY    18   9  68 N28G35    30.14S WCI  -1
$$

 ***** WEATHER ACROSS CENTRAL AND WESTERN NORTH DAKOTA  *****

CITY           SKY/WX    TMP DP  RH WIND       PRES   REMARKS
BISMARCK       PTSUNNY   35  17  47 N22G30    30.27S WCI  23
MINOT          MOSUNNY   32  10  40 NW22G30   30.26F WCI  19
JAMESTOWN      PTSUNNY   23  12  62 N30G37    30.18S WCI   5
MINOT AFB      PTSUNNY   30  11  44 NW21G29   30.26F WCI  17
GARRISON         N/A     31  17  56 NW23G33   30.26F WCI  18
WILLISTON      PTSUNNY   34  19  54 NW14      30.33F WCI  25
DICKINSON      CLOUDY    35  13  40 NW22G31   30.27S WCI  23
HETTINGER      PTSUNNY   36  11  35 NW26G35   30.29F
$$

 *****  OTHER AIRPORT OBSERVATIONS IN OUR AREA  *****

CITY           SKY/WX    TMP DP  RH WIND       PRES   REMARKS
WALHALLA       FAIR      14   9  79 N24G33    30.24F FOG     WCI  -5
GRAFTON AIRPOR LGT SNOW  12   7  79 N29G38    30.24S VSB 1   WCI  -9
VALLEY CITY AR FLURRIES  19  10  68 NW24G30   30.19R WCI   2
CANDO          FAIR      19  14  79 N24       30.24F WCI   2
CAVALIER APRT  LGT SNOW  10   7  85 N18G29    30.23S WCI  -8
GWINNER        CLOUDY    23  18  80 NW25      30.17S WCI   7
SHEYENNE NWR     N/A     19   8  62 N21       29.95S WCI   3
ROLLA          FAIR      19  10  68 N28       30.20F WCI   1
 ***** THE ABOVE OBSERVATIONS ARE NON NWS ARE NOT QUALITY
       CONTROLLED AND MAY MIS-REPORT RAIN FOR SNOW...
$$

  *****  WEATHER ACROSS NORTHERN MINNESOTA  *****

CITY           SKY/WX    TMP DP  RH WIND       PRES   REMARKS
FLAG ISLAND    CLOUDY     3  -2  78 NW24      30.07S WCI -20
WARROAD        FLURRIES   9   1  72 NW16G25   30.08S WCI  -9
ROSEAU         CLOUDY    10   3  72 N23       30.10S HAZE    WCI -10
HALLOCK        CLOUDY    12   7  79 N25G31    30.19S HAZE    WCI  -8
THF RVR FALLS  NOT AVBL
BAUDETTE       LGT SNOW   5  -3  69 NW17G28   30.03S WCI -14
WASKISH        FLURRIES   7   0  72 NW15G21   30.03R WCI -11
CROOKSTON      FOG       12   9  85 N31G37    30.19R VSB 3/4 WCI -10
STEPHEN NDAWN    N/A     12   7  79 N22         N/A  WCI  -7
GREENBUSH NDAW   N/A      9   5  85 NW26        N/A  WCI -13
$$
  *****  WEATHER ACROSS CENTRAL AND WEST MINNESOTA  *****

CITY           SKY/WX    TMP DP  RH WIND       PRES   REMARKS
FOSSTON        LGT SNOW  10   3  72 NW25      30.10S WCI -10
BEMIDJI        LGT SNOW   8   2  76 NW23G29   30.01S WCI -13
PARK RAPIDS    LGT SNOW  11   3  70 NW21G28   29.99S WCI  -8
ELBOW LAKE     CLOUDY    13   7  75 N24G31    30.08S WCI  -6
WADENA         FLURRIES  10   3  72 NW21G32   30.01S WCI  -9
DETROIT LAKES  CLOUDY    12   7  79 N31G41    30.07F WCI -10
MOORHEAD       CLOUDY    12   9  85 N24G33    30.17R WCI  -8
FERGUS FALLS   CLOUDY    12   7  79 N32G41    30.12F WCI -10
MORRIS MN      CLOUDY    16   9  73 N35G41    30.06F WCI  -6
STAPLES        FLURRIES  10   3  72 NW16      29.99S WCI  -7
$$
  *****  WEATHER ELSEWHERE ACROSS MINNESOTA  *****

CITY           SKY/WX    TMP DP  RH WIND       PRES   REMARKS
DULUTH         LGT SNOW  10   1  67 NW16G23   29.82F BLWGSNOWWCI  -7
INTRNTL FALLS  CLOUDY     6  -2  69 NW16      29.97S HAZE    WCI -12
ELY            LGT SNOW   9   3  78 NW12G20   29.83F WCI  -6
CLOQUET        CLOUDY    10   1  67 NW18G26   29.85F WCI  -8
WHEATON        LGT SNOW  19  12  73 NW23G35   30.15F WCI   2
BRAINERD       LGT SNOW  11   3  70 NW22G30   29.96S WCI  -8
HIBBING        CLOUDY     6   0  76 NW21      29.89S BLWGSNOWWCI -14
ALEXANDRIA     LGT SNOW  13   4  67 N26G35    30.02R WCI  -7
SAINT CLOUD    CLOUDY    13   3  64 NW21G30   29.96S WCI  -5
MINNEAPOLIS    PTSUNNY   16   5  62 NW17      29.93F WCI   0
$$

  *****  WEATHER ACROSS SOUTH DAKOTA  *****

CITY           SKY/WX    TMP DP  RH WIND       PRES   REMARKS
SIOUX FALLS    LGT SNOW  23  16  74 NW18G30   30.09F WCI   9
BROOKINGS      FLURRIES  19  12  73 N29G35    30.05F WCI   1
WATERTOWN      LGT SNOW  20  12  71 N26G36    30.08F WCI   2
HURON          SUNNY     30  16  56 N24G37    30.16F WCI  16
SISSETON         N/A     19  13  77 N26G36    30.12F WCI   1
ABERDEEN       MOSUNNY   32  12  43 N24G36    30.18F WCI  19
MITCHELL       SUNNY     31  17  56 NW36G41   30.18F WCI  15
PIERRE         CLOUDY    34  17  50 NW29G36   30.25F WCI  20
MOBRIDGE       PTSUNNY   36  18  48 N23G33    30.20F
RAPID CITY     CLOUDY    40   4  22 NW29G37   30.29F
$$

  *****  SOME WEATHER IN NEARBY STATES *****

CITY           SKY/WX    TMP DP  RH WIND       PRES   REMARKS
GLASGOW MT     CLOUDY    32  17  54 CALM      30.35F
GREAT FALLS MT SUNNY     55  26  32 SW18      30.38F
CHEYENNE WY    SUNNY     41  24  51 NW18G29   30.35F
SCOTTSBLUFF NE CLOUDY    38  22  52 NW13      30.36F
OMAHA NE       CLOUDY    27  17  66 N23G36    30.09F WCI  12
DES MOINES IA  CLOUDY    19   8  62 NW24G39   29.98R BLWGSNOWWCI   2
DAVENPORT IA   LGT SNOW  20  14  77 NW22G29   29.80R WCI   3
CHICAGO IL     CLOUDY    27  22  81 W10       29.66S WCI  17
EAU CLAIRE WI  CLOUDY    15   5  64 NW14      29.84F WCI   0
LA CROSSE WI   CLOUDY    19   9  65 NW18      29.84R WCI   4
$$

  *****  SOME NATIONAL WEATHER *****

CITY           SKY/WX    TMP DP  RH WIND       PRES   REMARKS
LA GUARDIA NY  CLOUDY    33  24  69 N12       29.74F WCI  24
RALEIGH NC     PTSUNNY   55  30  38 S12G17    29.69F
ATLANTA GA     MOSUNNY   52  28  39 W15G26    29.74F
NEW ORLEANS LA MOSUNNY   60  16  18 W26G36    30.05F
OKLAHOMA CITY  SUNNY     49   8  19 NW35G45   30.27F
ALBUQUERQUE NM MOSUNNY   52  16  24 N15G22    30.43F
SALT LAKE CITY PTSUNNY   38  24  57 CALM      30.70F
LOS ANGELES CA SUNNY     81  25  12 CALM      30.15S
BOISE ID       SUNNY     40  33  76 SE14      30.72S
SEATTLE WA     MOSUNNY   51  41  68 N8        30.46S
$$

*** WEATHER ACROSS MANITOBA...SASKATCHEWAN AND ONTARIO ***
                ***ONTARIO***

CITY           SKY/WX    TMP DP  RH WIND       PRES   REMARKS
GERALDTON      LGT SNOW   0  -8  71 N10       29.76S DRFTSNOWWCI -17
THUNDER BAY    FLURRIES   7   0  72 NW12G21   29.81F WCI  -9
SIOUX LOOKOUT  LGT SNOW   3  -4  72 N9        29.91S WCI -11
TORONTO        PTSUNNY   39  30  70 E17       29.61F
BIG TROUT LK   PTSUNNY   -4 -13  65 NW8       30.05F WCI -19
PICKLE LAKE    FLURRIES   0  -9  65 VRB7      29.88F WCI -13
DRYDEN         FLURRIES   5   0  78 NW13G21   29.93S WCI -12
KENORA         FLURRIES   1  -4  78 NW14G22   30.02S WCI -17
$$
                *** MANITOBA***

CITY           SKY/WX    TMP DP  RH WIND       PRES   REMARKS
BRANDON        PTSUNNY   16   9  73 NW14      30.28F WCI   1
DAUPHIN        MOSUNNY   12   7  79 NE6       30.32F WCI   3
ISLAND LAKE    FLURRIES   1  -4  78 NW10      30.19R WCI -14
PILOT MOUND      N/A     12   7  79 NW16G24     N/A  WCI  -4
THE PAS        PTSUNNY    9   0  66 NW12      30.33F WCI  -6
THOMPSON       FLURRIES   0  -8  71 NW12G17   30.27F WCI -18
WINNIPEG       PTSUNNY   10   3  72 NW24G31   30.23R WCI -10
LYNN LAKE      SUNNY     -8 -13  77 W8        30.29S WCI -23
CHURCHILL      CRYSTALS -17 -24  70 NW14G21   30.25R BLWGSNOWWCI -40
GILLAM         FLURRIES  -2 -11  65 NW15      30.21S WCI -22
$$
                ***SASKATCHEWAN***

CITY           SKY/WX    TMP DP  RH WIND       PRES   REMARKS
ESTEVAN        CLOUDY    28  19  69 NW13      30.31F WCI  18
KINDERSLEY     PTSUNNY   30  25  80 S7        30.27F WCI  23
LLOYDMINSTER   PTSUNNY   30  21  69 NW5       30.23S
PRINCE ALBERT  CLOUDY    21  18  86 SW3       30.29F
REGINA         CLOUDY    25  18  74 W3        30.33S
YORKTON        PTSUNNY   18   9  68 NW14      30.31S WCI   4
N. BATTLEFORD  CLOUDY    27  21  80 E6        30.28F WCI  20
LA RONGE       CLOUDY    10   3  72 SE5       30.28F WCI   2
SASKATOON      PTSUNNY   27  18  69 S6        30.31F WCI  20
SWIFT CURRENT  CLOUDY    36  16  44 SW5       30.27F
$$
NOTE: THESE ARE AUTOMATED STATIONS WITH LIMITED QUALITY CONTROL
      "FAIR" INDICATES FEW OR NO CLOUDS BELOW 12,000 FEET WITH NO
      SIGNIFICANT WEATHER AND/OR OBSTRUCTIONS TO VISIBILITY.
      SKY/WX - SKY CONDITION AND SIGNIFICANT WEATHER.
      TMP - AIR TEMPERATURE.    DP   - DEWPOINT TEMPERATURE.
      RH  - RELATIVE HUMIDITY.  PRES - PRESSURE.
      HX  - HEAT INDEX.         WCI  - WIND CHILL INDEX.
$



USA.gov is the U.S. government's official web portal to all federal, state and local government web resources and services.